SCP
0 0 0 0 0 0 0 0 0 0 0 0 0 0 0 0 0 0 0 0 0 0 0 0 0 0 0 0 0 0 0 0 0 0 0 0 0 0 0 0 0 0 0
0 0 0 0 0 0 0 0 0 0 0 0 0 0 0 0 0 0 0 0 0 0 0 0 0 0 0 0 0 0 0 0 0 0 0 0 0 0 0 0 0 0 0
0 0 0 0 0 0 0 0 0 0 0 0 0 0 0 0 0 0 0 0 0 0 0 0 0 0 0 0 0 0 0 0 0 0 0 0 0 0 0 0 0 0 0
0 0 0 0 0 0 0 0 0 0 0 0 0 0 0 0 0 0 0 0 0 0 0 0 0 0 0 0 0 0 0 0 0 0 0 0 0 0 0 0 0 0 0
0 0 0 0 0 0 0 0 0 0 0 0 0 0 0 0 0 0 0 0 0 0 0 0 0 0 0 0 0 0 0 0 0 0 0 0 0 0 0 0 0 0 0
0 0 0 0 0 0 0 0 0 0 0 0 0 0 0 0 0 0 0 0 0 0 0 0 0 0 0 0 0 0 0 0 0 0 0 0 0 0 0 0 0 0 0
0 0 0 0 0 0 0 0 0 0 0 0 0 0 0 0 0 0 0 0 0 0 0 0 0 0 0 0 0 0 0 0 0 0 0 0 0 0 0 0 0 0 0
0 0 0 0 0 0 0 0 0 0 0 0 0 0 0 0 0 0 0 0 0 0 0 0 0 0 0 0 0 0 0 0 0 0 0 0 0 0 0 0 0 0 0
0 0 0 0 0 0 0 0 0 0 0 0 0 0 0 0 0 0 0 0 0 0 0 0 0 0 0 0 0 0 0 0 0 0 0 0 0 0 0 0 0 0 0
0 0 0 0 0 0 0 0 0 0 0 0 0 0 0 0 0 0 0 0 0 0 0 0 0 0 0 0 0 0 0 0 0 0 0 0 0 0 0 0 0 0 0
0 0 0 0 0 0 0 0 0 0 0 0 0 0 0 0 0 0 0 0 0 0 0 0 0 0 0 0 0 0 0 0 0 0 0 0 0 0 0 0 0 0 0
0 0 0 0 0 0 0 0 0 0 0 0 0 0 0 0 0 0 0 0 0 0 0 0 0 0 0 0 0 0 0 0 0 0 0 0 0 0 0 0 0 0 0
0 0 0 0 0 0 0 0 0 0 0 0 0 0 0 0 0 0 0 0 0 0 0 0 0 0 0 0 0 0 0 0 0 0 0 0 0 0 0 0 0 0 0
0 0 0 0 0 0 0 0 0 0 0 0 0 0 0 0 0 0 0 0 0 0 0 0 0 0 0 0 0 0 0 0 0 0 0 0 0 0 0 0 0 0 0
0 0 0 0 0 0 0 0 0 0 0 0 0 0 0 0 0 0 0 0 0 0 0 0 0 0 0 0 0 0 0 0 0 0 0 0 0 0 0 0 0 0 0
0 0 0 0 0 0 0 0 0 0 0 0 0 0 0 0 0 0 0 0 0 0 0 0 0 0 0 0 0 0 0 0 0 0 0 0 0 0 0 0 0 0 0
0 0 0 0 0 0 0 0 0 0 0 0 0 0 0 0 0 0 0 0 0 0 0 0 0 0 0 0 0 0 0 0 0 0 0 0 0 0 0 0 0 0 0
0 0 0 0 0 0 0 0 0 0 0 0 0 0 0 0 0 0 0 0 0 0 0 0 0 0 0 0 0 0 0 0 0 0 0 0 0 0 0 0 0 0 0
0 0 0 0 0 0 0 0 0 0 0 0 0 0 0 0 0 0 0 0 0 0 0 0 0 0 0 0 0 0 0 0 0 0 0 0 0 0 0 0 0 0 0
0 0 0 0 0 0 0 0 0 0 0 0 0 0 0 0 0 0 0 0 0 0 0 0 0 0 0 0 0 0 0 0 0 0 0 0 0 0 0 0 0 0 0
0 0 0 0 0 0 0 0 0 0 0 0 0 0 0 0 0 0 0 0 0 0 0 0 0 0 0 0 0 0 0 0 0 0 0 0 0 0 0 0 0 0 0
0 0 0 0 0 0 0 0 0 0 0 0 0 0 0 0 0 0 0 0 0 0 0 0 0 0 0 0 0 0 0 0 0 0 0 0 0 0 0 0 0 0 0
0 0 0 0 0 0 0 0 0 0 0 0 0 0 0 0 0 0 0 0 0 0 0 0 0 0 0 0 0 0 0 0 0 0 0 0 0 0 0 0 0 0 0
0 0 0 0 0 0 0 0 0 0 0 0 0 0 0 0 0 0 0 0 0 0 0 0 0 0 0 0 0 0 0 0 0 0 0 0 0 0 0 0 0 0 0
0 0 0 0 0 0 0 0 0 0 0 0 0 0 0 0 0 0 0 0 0 0 0 0 0 0 0 0 0 0 0 0 0 0 0 0 0 0 0 0 0 0 0
0 0 0 0 0 0 0 0 0 0 0 0 0 0 0 0 0 0 0 0 0 0 0 0 0 0 0 0 0 0 0 0 0 0 0 0 0 0 0 0 0 0 0
Wind_Speed
3 4 8 8 9 10 10 10 10 10 10 11 11 12 12 12 13 13 13 13 12 12 13 13 13 13 14 14 14 14 14 14 14 15 15 14 14 14 14 14 12 8 14
6 5 10 9 9 9 10 10 10 10 10 10 11 11 11 11 12 12 12 12 12 12 12 12 12 12 13 13 13 13 13 13 13 13 13 12 13 14 13 13 12 8 13
8 6 8 10 9 9 10 10 9 10 10 10 10 10 11 11 11 11 11 11 11 11 11 12 12 11 11 12 12 12 12 12 13 13 11 6 7 12 13 12 12 12 12
8 6 6 10 10 9 10 9 9 9 9 10 10 10 10 10 10 10 10 10 10 10 10 10 10 10 11 11 11 11 12 12 11 11 6 4 5 10 11 11 11 11 11
7 5 7 11 10 9 9 9 8 8 9 9 10 10 9 9 9 9 9 9 9 9 9 9 10 10 10 9 10 10 11 11 10 8 4 4 3 9 10 10 10 10 10
6 5 6 10 10 9 9 9 8 8 8 9 9 9 9 9 9 9 9 9 9 8 8 9 9 9 8 8 9 9 9 10 8 4 4 3 3 8 9 9 9 10 10
7 5 6 9 9 9 8 8 8 7 7 8 8 8 9 9 9 9 8 9 8 8 8 8 8 8 7 7 8 8 8 8 6 4 3 2 3 8 8 8 8 9 9
7 5 5 8 8 8 8 7 7 7 7 7 7 8 8 8 8 8 8 8 8 8 7 7 7 7 7 7 6 7 7 7 6 4 2 2 5 8 8 8 8 8 8
6 5 4 4 5 6 7 6 6 6 6 6 6 7 7 6 7 8 8 8 8 7 7 6 6 6 6 6 5 5 6 6 4 2 2 2 5 7 7 7 7 7 7
5 5 4 3 3 3 3 5 5 5 5 5 5 5 5 5 6 6 6 7 7 7 6 6 5 5 5 5 5 5 5 5 2 2 1 2 6 6 7 6 6 6 6
4 3 3 4 3 2 3 4 4 4 4 4 4 4 4 2 3 3 4 5 6 6 6 5 5 4 4 3 4 4 3 1 2 1 1 4 6 6 6 6 5 6 6
4 3 3 3 3 3 2 2 2 2 2 2 2 3 2 2 2 3 4 5 5 5 5 5 5 4 2 1 2 2 1 1 1 1 2 5 5 5 5 6 5 5 5
4 3 3 3 3 3 2 2 1 1 1 1 2 2 2 2 1 1 1 2 2 3 2 3 2 1 1 1 1 1 1 1 1 1 2 5 5 6 6 6 6 6 5
3 2 2 3 3 3 2 2 2 1 1 1 2 2 2 2 2 1 1 2 1 1 1 1 1 1 1 2 2 2 2 2 1 1 1 4 5 6 6 6 6 6 5
3 2 2 3 3 3 2 2 2 2 2 2 2 2 3 2 2 2 1 1 2 2 2 2 2 1 2 2 2 3 2 2 2 2 1 3 4 5 6 6 6 6 6
2 2 2 2 2 2 2 2 2 2 2 2 2 2 3 3 3 2 2 2 2 2 2 3 3 2 2 2 2 3 3 2 2 2 2 3 4 5 6 6 6 6 6
2 2 2 2 2 2 2 2 2 2 2 2 2 2 2 3 3 3 2 2 2 2 2 2 2 2 2 1 2 2 2 2 3 3 3 2 2 4 5 7 7 7 7
2 1 1 1 2 2 1 1 1 1 2 2 1 1 2 2 3 3 2 2 2 2 2 2 2 2 1 1 1 2 2 2 3 3 3 3 2 2 4 6 6 7 7
2 1 1 1 1 1 1 1 1 1 1 1 1 1 1 2 2 2 2 2 2 2 2 2 2 2 2 1 1 1 1 2 3 3 3 4 3 3 3 4 5 5 6
1 1 1 1 1 1 1 1 0 0 1 1 1 1 2 2 2 2 2 2 2 2 1 1 2 1 2 2 1 1 2 2 2 3 4 3 3 4 4 3 3 3 5
1 1 1 1 0 1 0 0 1 1 1 1 1 1 1 2 2 2 1 2 2 2 2 2 2 1 1 1 1 1 2 2 2 3 3 3 4 4 4 4 3 3 3
1 1 1 1 0 0 0 1 1 1 1 1 1 1 1 1 1 1 2 2 2 2 2 2 2 2 1 1 2 1 2 2 2 3 2 3 4 3 4 5 4 4 3
1 0 0 1 0 0 0 0 1 1 1 0 1 1 1 1 1 2 2 2 3 3 3 3 4 4 3 2 2 2 2 3 2 2 3 3 3 3 3 3 4 5 4
1 0 1 1 1 1 0 0 1 1 2 2 2 2 2 2 2 2 2 3 3 3 4 4 3 3 4 3 2 2 2 2 2 2 2 2 3 4 4 4 4 4 4
0 0 1 1 1 1 1 0 1 1 2 1 1 2 2 2 2 2 2 2 2 3 3 4 3 3 3 3 3 2 2 1 2 2 3 3 3 3 4 4 4 4 4
0 1 1 2 2 1 1 0 1 2 2 1 2 2 2 2 2 2 2 2 3 2 3 3 4 4 4 4 3 3 3 2 3 3 3 3 4 4 3 4 4 4 4
Wind_Direction
162 170 142 135 131 129 127 125 119 115 115 115 111 109 107 105 105 104 102 100 99 99 98 96 93 92 91 90 90 88 86 84 82 81 81 82 83 84 82 78 74 71 79
154 157 139 133 129 127 125 125 122 119 118 118 116 114 112 110 107 107 105 103 101 101 101 98 96 95 95 93 91 89 87 86 87 83 79 80 83 84 84 82 78 78 80
138 141 140 135 130 125 124 122 123 123 123 123 121 119 117 116 113 109 108 108 107 104 102 101 99 98 97 96 93 91 89 89 91 87 78 66 78 85 85 83 81 80 82
134 134 135 135 131 126 126 125 122 125 128 128 125 122 120 119 117 114 112 111 111 109 107 106 103 100 100 99 96 94 90 89 88 87 72 63 72 87 87 85 84 82 81
126 129 139 132 130 128 126 127 126 127 128 132 128 126 125 123 121 119 118 115 112 113 112 110 107 103 101 100 98 97 94 89 85 84 75 69 69 88 88 88 88 85 82
123 123 136 133 131 129 126 125 123 127 130 131 133 132 131 131 129 127 124 121 118 116 119 118 112 107 103 102 101 99 98 94 84 81 78 76 79 94 93 91 90 88 86
126 122 133 131 132 128 126 125 125 125 127 130 131 132 137 136 133 132 129 126 124 124 123 123 122 115 108 105 104 103 100 98 92 87 87 86 101 103 100 97 96 92 89
129 126 130 127 125 126 128 126 127 128 124 128 132 134 133 139 138 136 134 133 131 132 133 133 127 123 120 116 111 109 99 97 96 99 97 104 115 111 106 103 102 97 93
123 121 116 125 130 129 128 125 124 126 123 124 131 134 132 133 141 142 142 141 139 140 141 142 136 127 131 130 123 112 102 99 98 109 122 130 126 119 114 109 107 104 100
115 117 118 114 117 125 130 122 120 124 122 120 124 126 129 133 141 144 146 147 147 148 150 152 146 141 144 137 128 115 105 98 104 110 124 149 139 130 125 121 117 114 111
120 124 128 126 119 122 133 127 119 118 122 122 124 126 126 132 141 149 154 152 156 159 160 159 155 148 150 137 129 119 107 106 122 127 149 157 153 148 142 138 133 127 122
150 154 147 143 139 132 135 125 124 122 122 120 127 133 134 135 144 148 157 163 165 169 174 171 165 156 147 135 130 118 123 136 135 166 174 166 162 162 157 152 149 145 137
158 159 162 158 150 143 136 135 135 132 129 127 135 140 139 134 135 140 148 166 177 177 176 177 173 174 167 167 166 169 171 163 165 193 191 180 174 173 166 159 155 154 150
140 155 160 161 152 152 147 154 154 153 157 155 165 153 143 143 151 162 168 172 170 178 174 163 178 196 189 188 183 186 185 183 181 191 205 189 185 184 178 170 167 165 161
139 156 158 152 155 160 152 159 155 174 177 179 172 172 164 159 167 176 180 176 177 178 181 181 186 197 206 200 199 193 193 194 192 188 205 202 198 195 190 188 185 179 174
149 148 161 153 147 151 159 164 168 176 179 175 180 186 177 172 175 174 180 186 190 192 194 192 190 188 207 201 205 198 192 193 192 193 203 209 207 203 201 197 194 191 189
157 144 147 153 137 136 159 174 166 176 174 181 191 187 178 177 179 176 177 190 198 198 195 185 184 178 185 195 210 210 196 198 202 202 199 202 210 212 207 205 204 201 199
125 117 113 131 128 135 145 176 179 181 182 192 189 185 185 182 177 174 179 194 196 179 179 181 176 176 190 196 214 233 217 201 213 212 203 201 201 210 210 209 211 212 212
143 139 111 107 120 124 125 155 179 186 184 192 182 179 182 177 176 177 184 191 180 174 182 185 178 175 187 202 225 239 243 225 215 208 206 205 203 204 205 211 214 217 220
140 130 141 124 98 89 81 75 89 180 197 190 193 189 176 176 177 172 179 188 172 169 185 179 183 183 182 192 238 273 272 259 230 211 212 210 207 207 203 204 207 226 230
64 82 119 108 31 85 78 147 204 226 220 213 217 197 191 184 177 175 180 190 185 186 188 181 177 168 192 164 109 313 297 273 255 234 217 205 209 210 200 203 203 208 232
95 89 94 124 193 206 248 241 220 218 213 212 232 243 227 198 191 199 187 199 199 189 183 181 167 171 210 184 153 163 293 305 280 248 225 210 213 209 209 210 208 210 218
82 308 323 301 263 282 316 53 32 51 33 12 247 237 245 234 217 213 203 201 203 196 198 199 188 182 199 225 197 178 193 234 285 281 241 223 212 208 216 213 215 215 217
256 323 356 343 333 339 53 150 185 213 244 238 227 227 249 240 234 224 218 214 208 206 206 207 205 204 191 209 233 240 228 190 200 271 287 254 227 221 224 225 221 220 220
194 41 359 358 357 350 348 234 215 232 241 262 272 234 234 240 236 225 222 218 220 219 213 210 210 211 206 205 203 213 232 249 211 209 260 277 266 238 228 224 221 220 221
63 42 21 15 341 334 331 281 225 231 233 235 259 250 242 245 246 239 231 219 221 225 221 222 217 216 217 217 216 207 201 205 210 205 232 254 264 258 240 226 221 220 221